Regional Weather Roundup
Issued by NWS

Home | Current Version | Previous Version | Text Only | Print | Product List | Glossary Off
Versions: 1 2 3 4 5 6 7 8 9 10 11 12 13 14 15 16 17 18 19 20 21 22 23 24 25 26 27 28 29 30 31 32 33 34 35 36 37 38 39 40 41 42 43 44 45 46 47 48 49 50

000
ASUS43 KLSX 220007
RWRMO

WEATHER SUMMARY FOR MISSOURI
NATIONAL WEATHER SERVICE SPRINGFIELD MO
600 PM CST SUN DEC 21 2014

NOTE: "FAIR" INDICATES FEW OR NO CLOUDS BELOW 12,000 FEET WITH NO
       SIGNIFICANT WEATHER AND/OR OBSTRUCTIONS TO VISIBILITY.
       CURRENT SKY AND/OR WEATHER CONDITIONS ARE NOT AVAILABLE FOR
       CHILLICOTHE AND FARMINGTON.

MOZ001>031-035>038-043-044-053-054-220100-
...NORTHERN AND WESTERN MISSOURI...

CITY           SKY/WX    TMP DP  RH WIND       PRES   REMARKS
KANSAS CTY INT CLOUDY    44  41  89 S14       29.81F
6HR MIN TEMP:  42; 6HR MAX TEMP:  45;

KANSAS C DTWN  CLOUDY    46  40  79 S9        29.82F
6HR MIN TEMP:  44; 6HR MAX TEMP:  47;

LEE`S SUMMIT   CLOUDY    43  41  93 S10       29.84F
6HR MIN TEMP:  43; 6HR MAX TEMP:  47;

ST JOSEPH      CLOUDY    44  39  82 S13       29.80F
6HR MIN TEMP:  42; 6HR MAX TEMP:  44;

CHILLICOTHE      N/A     43  41  93 SE8       29.88S
6HR MIN TEMP:  43; 6HR MAX TEMP:  46; 6HR PCP:  0.01;

KIRKSVILLE     CLOUDY    43  39  87 SE13      29.89F
6HR MIN TEMP:  42; 6HR MAX TEMP:  45; 6HR PCP: TRACE;


$$
MOZ066>068-077>081-088>096-101>105-220100-
...SOUTHWEST MISSOURI...

CITY           SKY/WX    TMP DP  RH WIND       PRES   REMARKS
SPRINGFIELD    CLOUDY    41  35  79 SE16      29.88F
6HR MIN TEMP:  41; 6HR MAX TEMP:  42;

JOPLIN         CLOUDY    46  38  73 SE8       29.86F
6HR MIN TEMP:  46; 6HR MAX TEMP:  49;


$$
MOZ032>034-039>042-045>050-055>058-069>072-220100-
...CENTRAL MISSOURI...

CITY           SKY/WX    TMP DP  RH WIND       PRES   REMARKS
COLUMBIA       CLOUDY    42  37  82 SE13      29.94R
6HR MIN TEMP:  42; 6HR MAX TEMP:  46; 6HR PCP: TRACE;

JEFFERSON CITY CLOUDY    43  36  76 SE12      29.96R
6HR MIN TEMP:  43; 6HR MAX TEMP:  46;

ROLLA          CLOUDY    39  33  79 SE9       29.94F
6HR MIN TEMP:  39; 6HR MAX TEMP:  40; 6HR PCP: TRACE;

SEDALIA        CLOUDY    44  38  79 SE9       29.90S
6HR MIN TEMP:  44; 6HR MAX TEMP:  46;

WHITEMAN AFB   CLOUDY    43  38  82 S10       29.87F
WARRENSBURG    CLOUDY    43  37  81 SE7       29.87F
OSAGE BEACH    CLOUDY    43  34  70 SE10      29.93S

$$
MOZ051-052-059>065-220100-
...EAST CENTRAL MISSOURI...

CITY           SKY/WX    TMP DP  RH WIND       PRES   REMARKS
ST LOUIS INTL  CLOUDY    44  31  60 SE15      30.02S
6HR MIN TEMP:  43; 6HR MAX TEMP:  45; 6HR PCP: TRACE;

SPIRIT OF STL  CLOUDY    42  32  67 SE9       30.00F
6HR MIN TEMP:  42; 6HR MAX TEMP:  44;

ST CHARLES     CLOUDY    42  33  70 SE8       30.01S
6HR MIN TEMP:  41; 6HR MAX TEMP:  44;


$$
MOZ072>076-082>087-097>100-106>115-220100-
...SOUTH CENTRAL AND SOUTHEAST MISSOURI...

CITY           SKY/WX    TMP DP  RH WIND       PRES   REMARKS
CAPE GIRARDEAU PTCLDY    37  33  85 E5        30.05R
6HR MIN TEMP:  37; 6HR MAX TEMP:  46;

FARMINGTON     CLOUDY    39  32  75 E6        30.04R
6HR MIN TEMP:  39; 6HR MAX TEMP:  43;

POPLAR BLUFF   CLOUDY    43  35  73 NE6       30.02F
6HR MIN TEMP:  41; 6HR MAX TEMP:  44;

WEST PLAINS    CLOUDY    40  33  76 E8        29.96F
6HR MIN TEMP:  39; 6HR MAX TEMP:  42;


$$



USA.gov is the U.S. government's official web portal to all federal, state and local government web resources and services.